PAGEOS 1 DEB, 2511

Orbit data source: Space-Track

PAGEOS 1 DEB, 2511 is space debris in LEO originally from a launch on Fri, 24 Jun 1966 UTC launched from the Air Force Western Test Range (AFWTR). Debris objects in space refer to the collection of defunct objects orbiting the Earth. Examples of debris include non-operational satellites, rocket bodies, and fragments generated from explosions, collisions, or faulty payload assembly.

Loading next visibility...
Identifier
2511, 1966-056D
Orbit
LEO
Country
Flag of USUS
Related business
Manufacturer
Goodyear
Mission
Spacecraft
Bus & Motor
ECHO CANISTER, Unknown motor
Mass
9 kg wet, 9 kg dry
Launch date (UTC)
1966-06-24 (60 years ago)
Launch vehicle
Unknown
Launch site
Air Force Western Test Range (AFWTR)
Object type
Payload
Rocket body
Debris
Shape & HBR
Unknown
Radar Cross Section
Large (>1 m²)

Expand to show TLE details & history
Last TLE update: 1 day ago

TLE from 1 day ago
0 PAGEOS 1 DEB
1 02511U 66056D   26199.05669515 -.00000022  00000-0 -23327-1 0  9990
2 02511  87.0008 222.0880 0015747 178.0437 182.0433  7.93368973355032
Epoch: 2026-07-18T01:21Z
TLE epoch observation values (Epoch: 2026-07-18T01:21:38.460Z)
Latitude
-0°
Longitude
-94.19717°
Altitude
4,259.672 km
Speed
6.117 km/s
True Right ascension
14h 48m 21s
True Declination
0° 00' 00"
Sunlit
Object was in daylight at epoch
Visualization orbit readout
Latitude
Unknown
Longitude
Unknown
Altitude
Unknown
Speed
Unknown
Apparent Right ascension
Unknown
Apparent Declination
Unknown
Sunlit
N/A
Visualization observer readout
Local Sidereal Time
19:48:33
Azimuth
Unknown
Elevation
Unknown
Doppler factor
Unknown
Orbital elements
Apogee altitude
4,255.566 km
Perigee altitude
4,222.129 km
Semi-major axis
10,616.985 km
Eccentricity
0.00157
Inclination
87.0008°
RAAN
222.088°
Arg. of periapsis
178.0437°
True anomaly
182.03688°
Mean anomaly
182.0433°
Eccentric anomaly
182.04009°
Mean motion
1.984 °/min
Orbital period
181.45 mins
BSTAR
-0.023327
Loading maneuver chart data...
Computing Atmospheric mass density...

Documentation

Showing up to 5 results
|